Flag for Austria Weather past 2 weeks in Kirchdorf an der Krems, Upper Austria, Austria

Now
38 °F

Chilly.


Feels Like: 38 °F
Forecast: 31 / 53 °F
Wind: 2 mph from Southwest

Location: Kremsmuenster

Current Time: Mar 7, 2015 at 3:25:10 AM

Latest Report: Mar 7, 2015 at 2:00 AM


Visibility: N/A

Pressure: 30.61 "Hg

Humidity: 74%

Dew point: 30 °F

Location of Kirchdorf an der KremsLocation

Historic Weather in Kirchdorf an der Krems — Graph

°F

Kirchdorf an der Krems temperature yesterday

Maximum temperature yesterday: 43 °F (at 3:00 PM)
Minimum temperature yesterday: 33 °F (at 6:00 AM)
Average temperature yesterday: 38 °F

Past Weeks' High & Low Weather Summary

 TemperatureHumidityPressure
High48 °F (Feb 21, 3:00 PM)100% (Mar 1, 6:00 AM)30.66 "Hg (Mar 1, 6:00 AM)
Low24 °F (Feb 20, 8:00 AM)37% (Mar 3, 4:00 PM)29.53 "Hg (Feb 21, 5:00 PM)
Average38 °F81%30.06 "Hg
* Reported Feb 20 2:00 AM — Mar 7 2:00 AM, Kirchdorf an der Krems, Weather by CustomWeather, © 2015

Note: Actual official high and low records may vary slightly from our data, if they occured in-between our weather recording intervals... More about our weather records

Advertising

Kirchdorf an der Krems weather history for previous 24 hours

 ConditionsComfort  
Time TempWeatherWind HumidityBarometerVisibility
2:00 AM
Sat, Mar 7
N/APassing clouds.8 mphN/AN/A6 mi
1:00 AM38 °FChilly.3 mph73%30.63 "HgN/A
12:00 AM39 °FChilly.5 mph71%30.65 "HgN/A
11:00 PM
Fri, Mar 6
39 °FChilly.2 mph71%30.65 "HgN/A
9:00 PM40 °FChilly.3 mph70%30.64 "HgN/A
8:00 PM40 °FQuite cool.3 mph68%30.63 "HgN/A
7:00 PM41 °FOvercast.2 mph68%30.61 "Hg6 mi
6:00 PM42 °FQuite cool.3 mph61%30.60 "HgN/A
5:00 PM42 °FQuite cool.5 mph65%30.59 "HgN/A
4:00 PM42 °FOvercast.6 mph65%30.60 "Hg7 mi
3:00 PM43 °FQuite cool.2 mph65%30.60 "HgN/A
2:00 PM42 °FQuite cool.6 mph64%30.62 "HgN/A
1:00 PM42 °FQuite cool.5 mph62%30.63 "HgN/A
12:00 PM40 °FChilly.7 mph72%30.65 "HgN/A
11:00 AM38 °FChilly.6 mph74%30.66 "HgN/A
10:00 AM37 °FPartly sunny.5 mph76%30.66 "Hg9 mi
9:00 AM36 °FChilly.5 mph79%30.65 "HgN/A
8:00 AM34 °FChilly.5 mph82%30.64 "HgN/A
7:00 AM33 °FOvercast.3 mph86%30.63 "Hg11 mi
6:00 AM33 °FChilly.5 mph90%30.62 "HgN/A
5:00 AM34 °FChilly.6 mph81%30.62 "HgN/A
4:00 AM33 °FFog.5 mph83%30.61 "HgN/A
3:00 AM34 °FChilly.5 mph76%30.60 "HgN/A
Weather by CustomWeather, © 2015

See weather overviewHow to use our weather pages